Track STARLINK-3942 now! 10-day predictions STARLINK-3942 is classified as:
1 52563U 22051AG 22224.58334491 -.00002354 00000-0 -12979-3 0 9997 2 52563 53.2147 232.9800 0002518 42.5448 17.6747 15.08852669 1308